Location: Palmerston North
(40.3500°S, 175.6170°E)
Time: 04:08:25
(UTC+13:00)

Cosmos 1386 Rocket - Pass Details

Date: 24 January 2019
Orbit: 930 x 1005 km, 83.0° (Epoch: 16 October)

Event Time Altitude Azimuth Distance (km) Brightness Sun altitude
Exits shadow 23:12:32 30° 346° (NNW) 1,669 5.4 -22.4°
Maximum altitude 23:15:50 79° 263° (W) 982 4.5 -22.8°
Drops below altitude 10° 23:22:00 10° 175° (S) 2,688 7.5 -23.4°
Sets 23:24:30 0° 174° (S) 3,633 8.3 -23.7°
